Time,TemperatureF,DewpointF,PressureIn,WindDirection,WindDirectionDegrees,WindSpeedMPH,WindSpeedGustMPH,Humidity,HourlyPrecipIn,Conditions,Clouds,dailyrainin,SoftwareType,DateUTC
2013-01-09 00:05:00,35.4,10.5,30.18,SW,233,0.0,0.0,35,0.00,,---,0.00,VWS V12.07,2013-01-09 05:05:00,
2013-01-09 00:08:00,35.6,10.0,30.18,SW,234,0.0,0.0,34,0.00,,---,0.00,VWS V12.07,2013-01-09 05:08:00,
2013-01-09 00:13:00,35.6,10.0,30.18,SW,233,0.0,0.0,34,0.00,,---,0.00,VWS V12.07,2013-01-09 05:13:00,
2013-01-09 00:19:00,35.4,9.9,30.18,SW,233,0.0,0.0,34,0.00,,---,0.00,VWS V12.07,2013-01-09 05:19:00,
2013-01-09 00:27:00,35.1,9.5,30.18,SW,233,0.0,0.0,34,0.00,,---,0.00,VWS V12.07,2013-01-09 05:27:00,
2013-01-09 00:34:00,34.9,9.4,30.18,SW,233,0.0,0.0,34,0.00,,---,0.00,VWS V12.07,2013-01-09 05:34:00,
2013-01-09 00:41:00,34.5,9.1,30.18,SW,233,0.0,0.0,34,0.00,,---,0.00,VWS V12.07,2013-01-09 05:41:00,
2013-01-09 00:46:00,34.3,9.5,30.18,SW,233,0.0,0.0,35,0.00,,---,0.00,VWS V12.07,2013-01-09 05:46:00,
2013-01-09 00:54:00,34.2,9.4,30.18,SW,233,0.0,0.0,35,0.00,,---,0.00,VWS V12.07,2013-01-09 05:54:00,
2013-01-09 00:59:00,34.0,9.2,30.18,SW,233,0.0,0.0,35,0.00,,---,0.00,VWS V12.07,2013-01-09 05:59:00,
2013-01-09 01:01:00,33.8,9.1,30.18,SW,233,0.0,0.0,35,0.00,,---,0.00,VWS V12.07,2013-01-09 06:01:00,
2013-01-09 01:08:00,33.6,8.9,30.18,SW,233,0.0,0.0,35,0.00,,---,0.00,VWS V12.07,2013-01-09 06:08:00,
2013-01-09 01:14:00,33.3,9.2,30.18,SW,233,0.0,0.0,36,0.00,,---,0.00,VWS V12.07,2013-01-09 06:14:00,
2013-01-09 01:21:00,33.3,9.2,30.18,SW,233,0.0,0.0,36,0.00,,---,0.00,VWS V12.07,2013-01-09 06:21:00,
2013-01-09 01:27:00,33.1,9.1,30.18,SW,233,0.0,0.0,36,0.00,,---,0.00,VWS V12.07,2013-01-09 06:27:00,
2013-01-09 01:36:00,32.7,9.3,30.18,SW,233,0.0,0.0,37,0.00,,---,0.00,VWS V12.07,2013-01-09 06:36:00,
2013-01-09 01:42:00,32.7,9.3,30.18,SW,234,0.0,0.0,37,0.00,,---,0.00,VWS V12.07,2013-01-09 06:42:00,
2013-01-09 01:50:00,32.5,9.8,30.18,SW,234,0.0,0.0,38,0.00,,---,0.00,VWS V12.07,2013-01-09 06:50:00,
2013-01-09 01:55:00,32.5,9.8,30.18,SW,233,0.0,0.0,38,0.00,,---,0.00,VWS V12.07,2013-01-09 06:55:00,
2013-01-09 02:01:00,32.4,9.6,30.18,SW,234,0.0,0.0,38,0.00,,---,0.00,VWS V12.07,2013-01-09 07:01:00,
2013-01-09 02:08:00,32.2,10.0,30.18,SW,234,0.0,0.0,39,0.00,,---,0.00,VWS V12.07,2013-01-09 07:08:00,
2013-01-09 02:14:00,32.2,10.0,30.18,SW,233,0.0,0.0,39,0.00,,---,0.00,VWS V12.07,2013-01-09 07:14:00,
2013-01-09 02:21:00,32.0,10.4,30.18,SW,233,0.0,0.0,40,0.00,,---,0.00,VWS V12.07,2013-01-09 07:21:00,
2013-01-09 02:27:00,32.0,10.4,30.18,SW,233,0.0,0.0,40,0.00,,---,0.00,VWS V12.07,2013-01-09 07:27:00,
2013-01-09 02:34:00,32.2,11.1,30.18,SW,233,0.0,0.0,41,0.00,,---,0.00,VWS V12.07,2013-01-09 07:34:00,
2013-01-09 02:40:00,32.4,11.3,30.18,SW,233,0.0,0.0,41,0.00,,---,0.00,VWS V12.07,2013-01-09 07:40:00,
2013-01-09 02:47:00,32.4,11.3,30.18,SW,233,0.0,0.0,41,0.00,,---,0.00,VWS V12.07,2013-01-09 07:47:00,
2013-01-09 02:53:00,32.4,11.3,30.18,SW,233,0.0,0.0,41,0.00,,---,0.00,VWS V12.07,2013-01-09 07:53:00,
2013-01-09 03:00:00,32.4,11.3,30.18,SW,233,0.0,0.0,41,0.00,,---,0.00,VWS V12.07,2013-01-09 08:00:00,
2013-01-09 03:06:00,32.2,11.1,30.18,SW,233,0.0,0.0,41,0.00,,---,0.00,VWS V12.07,2013-01-09 08:06:00,
2013-01-09 03:13:00,32.0,11.0,30.18,SW,233,0.0,0.0,41,0.00,,---,0.00,VWS V12.07,2013-01-09 08:13:00,
2013-01-09 03:19:00,31.8,10.8,30.18,SW,233,0.0,0.0,41,0.00,,---,0.00,VWS V12.07,2013-01-09 08:19:00,
2013-01-09 03:26:00,31.6,10.6,30.18,SW,233,0.0,0.0,41,0.00,,---,0.00,VWS V12.07,2013-01-09 08:26:00,
2013-01-09 03:32:00,31.5,10.5,30.18,SW,233,0.0,0.0,41,0.00,,---,0.00,VWS V12.07,2013-01-09 08:32:00,
2013-01-09 03:39:00,31.3,10.3,30.18,SW,233,0.0,0.0,41,0.00,,---,0.00,VWS V12.07,2013-01-09 08:39:00,
2013-01-09 03:45:00,31.3,10.3,30.18,SW,233,0.0,0.0,41,0.00,,---,0.00,VWS V12.07,2013-01-09 08:45:00,
2013-01-09 03:52:00,31.1,10.2,30.18,SW,233,0.0,0.0,41,0.00,,---,0.00,VWS V12.07,2013-01-09 08:52:00,
2013-01-09 03:58:00,31.1,10.2,30.18,SW,233,0.0,0.0,41,0.00,,---,0.00,VWS V12.07,2013-01-09 08:58:00,
2013-01-09 04:05:00,31.1,10.2,30.18,SW,233,0.0,0.0,41,0.00,,---,0.00,VWS V12.07,2013-01-09 09:05:00,
2013-01-09 04:11:00,30.9,10.0,30.18,SW,233,0.0,0.0,41,0.00,,---,0.00,VWS V12.07,2013-01-09 09:11:00,
2013-01-09 04:19:00,30.6,9.7,30.18,SW,233,0.0,0.0,41,0.00,,---,0.00,VWS V12.07,2013-01-09 09:19:00,
2013-01-09 04:26:00,30.4,9.5,30.18,SW,233,0.0,0.0,41,0.00,,---,0.00,VWS V12.07,2013-01-09 09:26:00,
2013-01-09 04:32:00,30.2,9.9,30.18,SW,233,0.0,0.0,42,0.00,,---,0.00,VWS V12.07,2013-01-09 09:32:00,
2013-01-09 04:39:00,29.8,9.6,30.18,SW,233,0.0,0.0,42,0.00,,---,0.00,VWS V12.07,2013-01-09 09:39:00,
2013-01-09 04:45:00,29.7,9.4,30.18,SW,233,0.0,0.0,42,0.00,,---,0.00,VWS V12.07,2013-01-09 09:45:00,
2013-01-09 04:52:00,29.5,9.2,30.18,SW,233,0.0,0.0,42,0.00,,---,0.00,VWS V12.07,2013-01-09 09:52:00,
2013-01-09 04:58:00,29.5,9.2,30.18,SW,233,0.0,0.0,42,0.00,,---,0.00,VWS V12.07,2013-01-09 09:58:00,
2013-01-09 05:06:00,29.3,9.1,30.18,SW,233,0.0,0.0,42,0.00,,---,0.00,VWS V12.07,2013-01-09 10:06:00,
2013-01-09 05:11:00,29.1,8.9,30.18,SW,233,0.0,0.0,42,0.00,,---,0.00,VWS V12.07,2013-01-09 10:11:00,
2013-01-09 05:18:00,28.9,9.3,30.18,SW,233,0.0,0.0,43,0.00,,---,0.00,VWS V12.07,2013-01-09 10:18:00,
2013-01-09 05:24:00,28.9,9.3,30.18,SW,233,0.0,0.0,43,0.00,,---,0.00,VWS V12.07,2013-01-09 10:24:00,
2013-01-09 05:31:00,28.6,8.9,30.18,SW,233,0.0,0.0,43,0.00,,---,0.00,VWS V12.07,2013-01-09 10:31:00,
2013-01-09 05:37:00,28.6,8.9,30.18,SW,233,0.0,0.0,43,0.00,,---,0.00,VWS V12.07,2013-01-09 10:37:00,
2013-01-09 05:44:00,28.4,8.8,30.18,SW,233,0.0,0.0,43,0.00,,---,0.00,VWS V12.07,2013-01-09 10:44:00,
2013-01-09 05:51:00,28.2,9.1,30.18,SW,233,0.0,0.0,44,0.00,,---,0.00,VWS V12.07,2013-01-09 10:51:00,
2013-01-09 05:57:00,28.4,9.3,30.18,SW,233,0.0,0.0,44,0.00,,---,0.00,VWS V12.07,2013-01-09 10:57:00,
2013-01-09 06:03:00,28.2,9.1,30.18,SW,234,0.0,0.0,44,0.00,,---,0.00,VWS V12.07,2013-01-09 11:03:00,
2013-01-09 06:10:00,28.0,8.9,30.18,SW,233,0.0,0.0,44,0.00,,---,0.00,VWS V12.07,2013-01-09 11:10:00,
2013-01-09 06:16:00,28.0,8.9,30.18,SW,233,0.0,0.0,44,0.00,,---,0.00,VWS V12.07,2013-01-09 11:16:00,
2013-01-09 06:23:00,27.9,8.8,30.18,SW,233,0.0,0.0,44,0.00,,---,0.00,VWS V12.07,2013-01-09 11:23:00,
2013-01-09 06:30:00,27.9,8.8,30.18,SW,233,0.0,0.0,44,0.00,,---,0.00,VWS V12.07,2013-01-09 11:30:00,
2013-01-09 06:36:00,27.7,9.1,30.18,SW,233,0.0,0.0,45,0.00,,---,0.00,VWS V12.07,2013-01-09 11:36:00,
2013-01-09 06:52:00,27.9,9.8,30.21,SW,233,0.0,0.0,46,0.00,,---,0.00,VWS V12.07,2013-01-09 11:52:00,
2013-01-09 06:57:00,27.9,9.8,30.21,SW,233,0.0,0.0,46,0.00,,---,0.00,VWS V12.07,2013-01-09 11:57:00,
2013-01-09 07:04:00,27.9,9.8,30.21,SW,233,0.0,0.0,46,0.00,,---,0.00,VWS V12.07,2013-01-09 12:04:00,
2013-01-09 07:10:00,27.7,9.6,30.21,SW,234,0.0,0.0,46,0.00,,---,0.00,VWS V12.07,2013-01-09 12:10:00,
2013-01-09 07:17:00,27.7,10.1,30.21,SW,233,0.0,0.0,47,0.00,,---,0.00,VWS V12.07,2013-01-09 12:17:00,
2013-01-09 07:24:00,27.9,10.3,30.21,SW,233,0.0,0.0,47,0.00,,---,0.00,VWS V12.07,2013-01-09 12:24:00,
2013-01-09 07:30:00,27.7,10.1,30.21,SW,233,0.0,0.0,47,0.00,,---,0.00,VWS V12.07,2013-01-09 12:30:00,
2013-01-09 07:37:00,27.7,10.1,30.21,SW,233,0.0,0.0,47,0.00,,---,0.00,VWS V12.07,2013-01-09 12:37:00,
2013-01-09 07:42:00,27.7,10.6,30.21,SW,233,0.0,0.0,48,0.00,,---,0.00,VWS V12.07,2013-01-09 12:42:00,
2013-01-09 07:50:00,27.9,10.7,30.18,SW,234,0.0,0.0,48,0.00,,---,0.00,VWS V12.07,2013-01-09 12:50:00,
2013-01-09 07:56:00,28.0,10.9,30.18,SW,233,0.0,0.0,48,0.00,,---,0.00,VWS V12.07,2013-01-09 12:56:00,
2013-01-09 08:01:00,28.2,11.1,30.18,SW,233,0.0,0.0,48,0.00,,---,0.00,VWS V12.07,2013-01-09 13:01:00,
2013-01-09 08:08:00,28.6,11.4,30.21,SW,233,0.0,0.0,48,0.00,,---,0.00,VWS V12.07,2013-01-09 13:08:00,
2013-01-09 08:15:00,28.8,11.6,30.21,SW,234,0.0,0.0,48,0.00,,---,0.00,VWS V12.07,2013-01-09 13:15:00,
2013-01-09 08:21:00,29.1,11.9,30.21,SW,233,0.0,0.0,48,0.00,,---,0.00,VWS V12.07,2013-01-09 13:21:00,
2013-01-09 08:27:00,29.3,12.1,30.21,SW,233,0.0,0.0,48,0.00,,---,0.00,VWS V12.07,2013-01-09 13:27:00,
2013-01-09 08:35:00,29.7,12.9,30.21,SW,234,0.0,0.0,49,0.00,,---,0.00,VWS V12.07,2013-01-09 13:35:00,
2013-01-09 08:41:00,30.0,13.2,30.21,SW,233,0.0,0.0,49,0.00,,---,0.00,VWS V12.07,2013-01-09 13:41:00,
2013-01-09 08:48:00,30.4,13.5,30.21,SW,233,0.0,0.0,49,0.00,,---,0.00,VWS V12.07,2013-01-09 13:48:00,
2013-01-09 08:53:00,30.7,13.9,30.21,SW,233,0.0,0.0,49,0.00,,---,0.00,VWS V12.07,2013-01-09 13:53:00,
2013-01-09 09:00:00,31.1,14.2,30.21,SW,233,0.0,0.0,49,0.00,,---,0.00,VWS V12.07,2013-01-09 14:00:00,
2013-01-09 09:06:00,31.6,14.7,30.18,SW,233,0.0,0.0,49,0.00,,---,0.00,VWS V12.07,2013-01-09 14:06:00,
2013-01-09 09:14:00,32.2,15.2,30.18,SW,233,0.0,0.0,49,0.00,,---,0.00,VWS V12.07,2013-01-09 14:14:00,
2013-01-09 09:20:00,32.5,16.0,30.18,SW,233,0.0,0.0,50,0.00,,---,0.00,VWS V12.07,2013-01-09 14:20:00,
2013-01-09 09:27:00,32.9,16.3,30.18,SW,233,0.0,0.0,50,0.00,,---,0.00,VWS V12.07,2013-01-09 14:27:00,
2013-01-09 09:33:00,33.1,16.0,30.18,SW,233,0.0,0.0,49,0.00,,---,0.00,VWS V12.07,2013-01-09 14:33:00,
2013-01-09 09:40:00,33.6,16.5,30.18,SW,233,0.0,0.0,49,0.00,,---,0.00,VWS V12.07,2013-01-09 14:40:00,
2013-01-09 09:46:00,34.2,16.5,30.18,SW,233,0.0,0.0,48,0.00,,---,0.00,VWS V12.07,2013-01-09 14:46:00,
2013-01-09 09:53:00,34.9,17.2,30.18,SW,233,0.0,0.0,48,0.00,,---,0.00,VWS V12.07,2013-01-09 14:53:00,
2013-01-09 09:59:00,35.6,17.4,30.18,SW,233,0.0,0.0,47,0.00,,---,0.00,VWS V12.07,2013-01-09 14:59:00,
2013-01-09 10:06:00,36.3,17.5,30.18,SW,233,0.0,0.0,46,0.00,,---,0.00,VWS V12.07,2013-01-09 15:06:00,
2013-01-09 10:11:00,36.9,17.5,30.18,SW,233,0.0,0.0,45,0.00,,---,0.00,VWS V12.07,2013-01-09 15:11:00,
2013-01-09 10:19:00,37.4,17.0,30.18,SW,233,0.0,0.0,43,0.00,,---,0.00,VWS V12.07,2013-01-09 15:19:00,
2013-01-09 10:25:00,37.6,16.6,30.18,SW,234,0.0,0.0,42,0.00,,---,0.00,VWS V12.07,2013-01-09 15:25:00,
2013-01-09 10:31:00,37.9,16.4,30.18,SW,233,0.0,0.0,41,0.00,,---,0.00,VWS V12.07,2013-01-09 15:31:00,
2013-01-09 10:39:00,37.9,15.8,30.15,SW,233,0.0,3.1,40,0.00,,---,0.00,VWS V12.07,2013-01-09 15:39:00,
2013-01-09 10:44:00,38.1,15.4,30.15,SW,233,0.0,0.0,39,0.00,,---,0.00,VWS V12.07,2013-01-09 15:44:00,
2013-01-09 10:51:00,38.5,15.7,30.15,SW,232,0.0,0.0,39,0.00,,---,0.00,VWS V12.07,2013-01-09 15:51:00,
2013-01-09 10:58:00,38.8,14.8,30.15,SW,233,0.0,0.0,37,0.00,,---,0.00,VWS V12.07,2013-01-09 15:58:00,
2013-01-09 11:04:00,38.8,14.2,30.15,SW,233,0.0,4.0,36,0.00,,---,0.00,VWS V12.07,2013-01-09 16:04:00,
2013-01-09 11:10:00,38.8,12.9,30.15,SW,233,0.0,4.0,34,0.00,,---,0.00,VWS V12.07,2013-01-09 16:10:00,
2013-01-09 11:16:00,39.0,13.0,30.15,SW,233,0.0,0.0,34,0.00,,---,0.00,VWS V12.07,2013-01-09 16:16:00,
2013-01-09 11:23:00,39.2,12.5,30.12,SW,233,0.0,3.6,33,0.00,,---,0.00,VWS V12.07,2013-01-09 16:23:00,
2013-01-09 11:29:00,39.4,12.7,30.12,SW,234,0.0,0.0,33,0.00,,---,0.00,VWS V12.07,2013-01-09 16:29:00,
2013-01-09 11:36:00,39.7,12.3,30.12,SW,233,0.0,3.1,32,0.00,,---,0.00,VWS V12.07,2013-01-09 16:36:00,
2013-01-09 11:42:00,39.7,12.3,30.12,West,259,2.7,4.0,32,0.00,,---,0.00,VWS V12.07,2013-01-09 16:42:00,
2013-01-09 11:48:00,39.7,11.6,30.12,West,259,0.0,2.2,31,0.00,,---,0.00,VWS V12.07,2013-01-09 16:48:00,
2013-01-09 11:53:00,39.7,11.6,30.09,SSW,204,2.7,3.6,31,0.00,,---,0.00,VWS V12.07,2013-01-09 16:53:00,
2013-01-09 12:01:00,40.1,11.9,30.09,SSW,209,0.0,0.0,31,0.00,,---,0.00,VWS V12.07,2013-01-09 17:01:00,
2013-01-09 12:07:00,40.3,12.1,30.06,SSW,210,0.0,0.0,31,0.00,,---,0.00,VWS V12.07,2013-01-09 17:07:00,
2013-01-09 12:14:00,40.5,12.2,30.06,WSW,251,0.0,2.7,31,0.00,,---,0.00,VWS V12.07,2013-01-09 17:14:00,
2013-01-09 12:21:00,40.6,12.4,30.03,WSW,250,0.0,0.0,31,0.00,,---,0.00,VWS V12.07,2013-01-09 17:21:00,
2013-01-09 12:28:00,41.0,12.7,30.03,WSW,250,0.0,0.0,31,0.00,,---,0.00,VWS V12.07,2013-01-09 17:28:00,
2013-01-09 12:33:00,41.4,12.3,30.03,SSE,159,0.0,2.2,30,0.00,,---,0.00,VWS V12.07,2013-01-09 17:33:00,
2013-01-09 12:40:00,41.9,12.7,30.00,SSE,159,0.0,2.2,30,0.00,,---,0.00,VWS V12.07,2013-01-09 17:40:00,
2013-01-09 12:46:00,42.3,13.1,30.00,SSE,168,0.0,3.1,30,0.00,,---,0.00,VWS V12.07,2013-01-09 17:46:00,
2013-01-09 12:54:00,42.4,12.4,30.03,SSE,153,2.7,4.0,29,0.00,,---,0.00,VWS V12.07,2013-01-09 17:54:00,
2013-01-09 12:59:00,42.6,12.6,30.03,SW,229,0.0,4.9,29,0.00,,---,0.00,VWS V12.07,2013-01-09 17:59:00,
2013-01-09 13:05:00,42.6,12.6,30.00,SSE,160,3.6,4.0,29,0.00,,---,0.00,VWS V12.07,2013-01-09 18:05:00,
2013-01-09 13:11:00,42.6,12.6,30.00,South,170,0.0,5.4,29,0.00,,---,0.00,VWS V12.07,2013-01-09 18:11:00,
2013-01-09 13:18:00,42.8,12.8,30.00,SW,222,2.7,4.0,29,0.00,,---,0.00,VWS V12.07,2013-01-09 18:18:00,
2013-01-09 13:25:00,42.8,12.8,30.00,SW,236,3.1,5.8,29,0.00,,---,0.00,VWS V12.07,2013-01-09 18:25:00,
2013-01-09 13:31:00,43.2,13.1,30.00,SW,232,3.1,4.9,29,0.00,,---,0.00,VWS V12.07,2013-01-09 18:31:00,
2013-01-09 13:37:00,43.3,12.4,30.00,WSW,253,3.6,6.7,28,0.00,,---,0.00,VWS V12.07,2013-01-09 18:37:00,
2013-01-09 13:41:00,43.3,12.4,30.00,WSW,251,4.9,8.1,28,0.00,,---,0.00,VWS V12.07,2013-01-09 18:41:00,
2013-01-09 13:45:00,43.5,12.6,30.00,West,259,5.8,5.8,28,0.00,,---,0.00,VWS V12.07,2013-01-09 18:45:00,
2013-01-09 13:50:00,43.5,12.6,30.03,WSW,247,5.8,10.5,28,0.00,,---,0.00,VWS V12.07,2013-01-09 18:50:00,
2013-01-09 13:53:00,43.5,12.6,30.03,West,264,5.8,10.5,28,0.00,,---,0.00,VWS V12.07,2013-01-09 18:53:00,
2013-01-09 13:59:00,43.3,12.4,30.03,West,261,4.0,4.9,28,0.00,,---,0.00,VWS V12.07,2013-01-09 18:59:00,
2013-01-09 14:05:00,43.3,12.4,30.00,West,268,5.4,11.0,28,0.00,,---,0.00,VWS V12.07,2013-01-09 19:05:00,
2013-01-09 14:11:00,43.3,12.4,30.00,West,268,0.0,11.0,28,0.00,,---,0.00,VWS V12.07,2013-01-09 19:11:00,
2013-01-09 14:20:00,43.5,12.6,29.97,South,183,3.6,5.8,28,0.00,,---,0.00,VWS V12.07,2013-01-09 19:20:00,
2013-01-09 14:25:00,43.7,12.8,29.97,WSW,243,0.0,5.8,28,0.00,,---,0.00,VWS V12.07,2013-01-09 19:25:00,
2013-01-09 14:33:00,43.7,12.8,29.97,WSW,249,0.0,3.6,28,0.00,,---,0.00,VWS V12.07,2013-01-09 19:33:00,
2013-01-09 14:38:00,43.7,12.8,29.97,SSW,211,3.1,5.8,28,0.00,,---,0.00,VWS V12.07,2013-01-09 19:38:00,
2013-01-09 14:45:00,43.7,12.8,29.97,SW,227,0.0,2.7,28,0.00,,---,0.00,VWS V12.07,2013-01-09 19:45:00,
2013-01-09 14:51:00,43.7,12.8,29.97,SSW,213,3.6,4.9,28,0.00,,---,0.00,VWS V12.07,2013-01-09 19:51:00,
2013-01-09 14:58:00,43.7,12.8,29.97,WSW,240,3.1,4.9,28,0.00,,---,0.00,VWS V12.07,2013-01-09 19:58:00,
2013-01-09 15:05:00,43.5,12.6,29.94,WSW,240,3.1,5.4,28,0.00,,---,0.00,VWS V12.07,2013-01-09 20:05:00,
2013-01-09 15:11:00,43.3,12.4,29.94,SSW,204,6.3,6.3,28,0.00,,---,0.00,VWS V12.07,2013-01-09 20:11:00,
2013-01-09 15:18:00,43.3,12.4,29.94,SW,226,0.0,3.6,28,0.00,,---,0.00,VWS V12.07,2013-01-09 20:18:00,
2013-01-09 15:24:00,43.2,12.3,29.94,SSE,152,0.0,5.8,28,0.00,,---,0.00,VWS V12.07,2013-01-09 20:24:00,
2013-01-09 15:31:00,43.2,12.3,29.94,SW,227,2.2,3.6,28,0.00,,---,0.00,VWS V12.07,2013-01-09 20:31:00,
2013-01-09 15:38:00,43.2,13.1,29.94,SW,218,3.1,4.9,29,0.00,,---,0.00,VWS V12.07,2013-01-09 20:38:00,
2013-01-09 15:44:00,43.0,12.9,29.94,West,268,0.0,4.0,29,0.00,,---,0.00,VWS V12.07,2013-01-09 20:44:00,
2013-01-09 15:50:00,43.0,12.9,29.91,SW,236,4.0,4.0,29,0.00,,---,0.00,VWS V12.07,2013-01-09 20:50:00,
2013-01-09 15:58:00,43.0,12.9,29.91,WSW,248,3.1,5.8,29,0.00,,---,0.00,VWS V12.07,2013-01-09 20:58:00,
2013-01-09 16:04:00,43.0,12.9,29.91,WSW,255,4.0,5.8,29,0.00,,---,0.00,VWS V12.07,2013-01-09 21:04:00,
2013-01-09 16:10:00,43.0,12.9,29.91,West,262,2.7,5.8,29,0.00,,---,0.00,VWS V12.07,2013-01-09 21:10:00,
2013-01-09 16:16:00,43.0,12.9,29.91,SW,222,0.0,3.6,29,0.00,,---,0.00,VWS V12.07,2013-01-09 21:16:00,
2013-01-09 16:24:00,43.0,12.9,29.85,West,263,2.2,7.6,29,0.00,,---,0.00,VWS V12.07,2013-01-09 21:24:00,
2013-01-09 16:29:00,43.2,13.1,29.85,South,171,3.1,3.1,29,0.00,,---,0.00,VWS V12.07,2013-01-09 21:29:00,
2013-01-09 16:37:00,42.8,13.5,29.80,SW,232,3.6,8.7,30,0.00,,---,0.00,VWS V12.07,2013-01-09 21:37:00,
2013-01-09 16:43:00,42.6,14.1,29.80,West,263,3.1,8.7,31,0.00,,---,0.00,VWS V12.07,2013-01-09 21:43:00,
2013-01-09 16:50:00,42.6,14.1,29.88,WSW,251,7.6,11.0,31,0.00,,---,0.00,VWS V12.07,2013-01-09 21:50:00,
2013-01-09 16:55:00,42.6,14.8,29.88,SW,236,4.5,11.0,32,0.00,,---,0.00,VWS V12.07,2013-01-09 21:55:00,
2013-01-09 17:03:00,42.4,14.7,29.88,West,270,3.1,5.8,32,0.00,,---,0.00,VWS V12.07,2013-01-09 22:03:00,
2013-01-09 17:09:00,42.4,14.7,29.85,SW,231,3.6,5.8,32,0.00,,---,0.00,VWS V12.07,2013-01-09 22:09:00,
2013-01-09 17:15:00,42.3,14.5,29.85,WSW,240,2.7,3.6,32,0.00,,---,0.00,VWS V12.07,2013-01-09 22:15:00,
2013-01-09 17:22:00,42.3,14.5,29.85,WNW,286,3.6,6.7,32,0.00,,---,0.00,VWS V12.07,2013-01-09 22:22:00,
2013-01-09 17:28:00,42.1,14.4,29.85,SSW,196,4.0,6.7,32,0.00,,---,0.00,VWS V12.07,2013-01-09 22:28:00,
2013-01-09 17:35:00,42.1,15.1,29.83,WSW,248,4.0,5.8,33,0.00,,---,0.00,VWS V12.07,2013-01-09 22:35:00,
2013-01-09 17:41:00,42.1,15.1,29.83,SSW,192,5.8,6.3,33,0.00,,---,0.00,VWS V12.07,2013-01-09 22:41:00,
2013-01-09 17:48:00,42.3,15.9,29.83,SW,236,3.1,5.4,34,0.00,,---,0.00,VWS V12.07,2013-01-09 22:48:00,
2013-01-09 17:54:00,42.3,15.9,29.80,SW,236,4.0,6.7,34,0.00,,---,0.00,VWS V12.07,2013-01-09 22:54:00,
2013-01-09 18:01:00,42.4,16.1,29.80,SW,223,4.0,5.8,34,0.00,,---,0.00,VWS V12.07,2013-01-09 23:01:00,
2013-01-09 18:07:00,42.4,16.1,29.83,SW,233,3.1,5.8,34,0.00,,---,0.00,VWS V12.07,2013-01-09 23:07:00,
2013-01-09 18:14:00,42.4,16.1,29.83,SW,214,5.4,5.4,34,0.00,,---,0.00,VWS V12.07,2013-01-09 23:14:00,
2013-01-09 18:20:00,42.3,15.9,29.83,West,268,5.4,6.3,34,0.00,,---,0.00,VWS V12.07,2013-01-09 23:20:00,
2013-01-09 18:32:00,42.3,15.9,29.83,WSW,238,6.3,7.6,34,0.00,,---,0.00,VWS V12.07,2013-01-09 23:32:00,
2013-01-09 18:38:00,42.1,15.8,29.80,SW,229,3.1,8.3,34,0.00,,---,0.00,VWS V12.07,2013-01-09 23:38:00,
2013-01-09 18:44:00,42.1,16.4,29.80,WSW,240,3.1,3.6,35,0.00,,---,0.00,VWS V12.07,2013-01-09 23:44:00,
2013-01-09 18:51:00,41.9,16.3,29.83,WSW,253,4.0,5.8,35,0.00,,---,0.00,VWS V12.07,2013-01-09 23:51:00,
2013-01-09 18:58:00,41.9,16.9,29.83,WSW,256,6.3,6.3,36,0.00,,---,0.00,VWS V12.07,2013-01-09 23:58:00,
2013-01-09 19:04:00,41.9,16.9,29.83,West,264,6.3,6.3,36,0.00,,---,0.00,VWS V12.07,2013-01-10 00:04:00,
2013-01-09 19:11:00,41.9,16.9,29.83,WSW,237,3.6,6.3,36,0.00,,---,0.00,VWS V12.07,2013-01-10 00:11:00,
2013-01-09 19:18:00,41.9,17.5,29.83,WSW,245,4.0,7.6,37,0.00,,---,0.00,VWS V12.07,2013-01-10 00:18:00,
2013-01-09 19:24:00,42.1,18.3,29.83,West,263,5.4,7.6,38,0.00,,---,0.00,VWS V12.07,2013-01-10 00:24:00,
2013-01-09 19:31:00,42.4,18.6,29.83,WSW,257,5.4,5.8,38,0.00,,---,0.00,VWS V12.07,2013-01-10 00:31:00,
2013-01-09 19:37:00,42.4,18.6,29.83,WSW,249,4.0,8.1,38,0.00,,---,0.00,VWS V12.07,2013-01-10 00:37:00,
2013-01-09 19:45:00,42.6,18.8,29.83,WSW,244,5.4,8.7,38,0.00,,---,0.00,VWS V12.07,2013-01-10 00:45:00,
2013-01-09 19:51:00,42.8,19.0,29.83,SW,235,5.8,10.1,38,0.00,,---,0.00,VWS V12.07,2013-01-10 00:51:00,
2013-01-09 19:59:00,42.8,18.4,29.83,SW,214,5.8,10.1,37,0.00,,---,0.00,VWS V12.07,2013-01-10 00:59:00,
2013-01-09 20:05:00,42.8,18.4,29.80,West,265,3.6,8.1,37,0.00,,---,0.00,VWS V12.07,2013-01-10 01:05:00,
2013-01-09 20:13:00,42.8,18.4,29.80,WSW,254,7.2,11.4,37,0.00,,---,0.00,VWS V12.07,2013-01-10 01:13:00,
2013-01-09 20:19:00,43.0,18.5,29.83,WSW,242,5.8,8.7,37,0.00,,---,0.00,VWS V12.07,2013-01-10 01:19:00,
2013-01-09 20:26:00,43.0,18.5,29.83,West,260,7.2,8.7,37,0.00,,---,0.00,VWS V12.07,2013-01-10 01:26:00,
2013-01-09 20:33:00,43.0,18.5,29.83,WSW,244,2.7,10.1,37,0.00,,---,0.00,VWS V12.07,2013-01-10 01:33:00,
2013-01-09 20:40:00,42.8,18.4,29.83,West,260,6.3,10.1,37,0.00,,---,0.00,VWS V12.07,2013-01-10 01:40:00,
2013-01-09 20:46:00,42.8,17.7,29.83,WSW,239,5.8,6.7,36,0.00,,---,0.00,VWS V12.07,2013-01-10 01:46:00,
2013-01-09 20:53:00,42.8,17.7,29.83,WSW,238,10.5,10.5,36,0.00,,---,0.00,VWS V12.07,2013-01-10 01:53:00,
2013-01-09 21:00:00,43.0,17.9,29.83,West,268,10.1,10.1,36,0.00,,---,0.00,VWS V12.07,2013-01-10 02:00:00,
2013-01-09 21:06:00,43.2,17.4,29.80,West,270,3.6,11.0,35,0.00,,---,0.00,VWS V12.07,2013-01-10 02:06:00,
2013-01-09 21:15:00,43.3,16.9,29.80,West,265,3.1,3.6,34,0.00,,---,0.00,VWS V12.07,2013-01-10 02:15:00,
2013-01-09 21:21:00,43.3,16.2,29.83,South,191,3.6,7.6,33,0.00,,---,0.00,VWS V12.07,2013-01-10 02:21:00,
2013-01-09 21:28:00,43.3,16.2,29.83,West,271,2.2,8.7,33,0.00,,---,0.00,VWS V12.07,2013-01-10 02:28:00,
2013-01-09 21:34:00,43.3,16.2,29.83,WNW,290,5.8,8.7,33,0.00,,---,0.00,VWS V12.07,2013-01-10 02:34:00,
2013-01-09 21:42:00,43.2,16.0,29.83,SW,227,3.6,8.7,33,0.00,,---,0.00,VWS V12.07,2013-01-10 02:42:00,
2013-01-09 21:48:00,43.2,16.0,29.83,WNW,290,4.0,5.4,33,0.00,,---,0.00,VWS V12.07,2013-01-10 02:48:00,
2013-01-09 21:55:00,43.2,15.3,29.83,WSW,247,6.3,8.1,32,0.00,,---,0.00,VWS V12.07,2013-01-10 02:55:00,
2013-01-09 22:01:00,43.3,15.5,29.83,SW,233,3.6,10.5,32,0.00,,---,0.00,VWS V12.07,2013-01-10 03:01:00,
2013-01-09 22:08:00,43.5,15.6,29.83,West,279,5.8,10.5,32,0.00,,---,0.00,VWS V12.07,2013-01-10 03:08:00,
2013-01-09 22:15:00,43.5,14.9,29.83,SW,226,3.6,5.4,31,0.00,,---,0.00,VWS V12.07,2013-01-10 03:15:00,
2013-01-09 22:20:00,43.7,15.1,29.83,SW,235,4.9,11.0,31,0.00,,---,0.00,VWS V12.07,2013-01-10 03:20:00,
2013-01-09 22:27:00,43.7,15.1,29.83,SW,221,5.8,11.0,31,0.00,,---,0.00,VWS V12.07,2013-01-10 03:27:00,
2013-01-09 22:33:00,43.7,15.1,29.83,West,271,5.4,10.5,31,0.00,,---,0.00,VWS V12.07,2013-01-10 03:33:00,
2013-01-09 22:40:00,43.7,15.1,29.83,West,270,5.4,12.3,31,0.00,,---,0.00,VWS V12.07,2013-01-10 03:40:00,
2013-01-09 22:46:00,43.5,14.9,29.83,SW,233,5.8,8.7,31,0.00,,---,0.00,VWS V12.07,2013-01-10 03:46:00,
2013-01-09 22:54:00,43.3,14.8,29.83,SW,235,6.3,11.9,31,0.00,,---,0.00,VWS V12.07,2013-01-10 03:54:00,
2013-01-09 22:59:00,43.3,14.8,29.83,NNW,334,3.1,4.9,31,0.00,,---,0.00,VWS V12.07,2013-01-10 03:59:00,
2013-01-09 23:06:00,43.3,14.8,29.85,West,279,10.1,11.0,31,0.00,,---,0.00,VWS V12.07,2013-01-10 04:06:00,
2013-01-09 23:12:00,43.3,14.0,29.85,SW,236,4.0,13.2,30,0.00,,---,0.00,VWS V12.07,2013-01-10 04:12:00,
2013-01-09 23:19:00,43.3,14.0,29.83,SW,220,5.4,12.3,30,0.00,,---,0.00,VWS V12.07,2013-01-10 04:19:00,
2013-01-09 23:24:00,43.5,13.4,29.83,WSW,237,3.6,12.3,29,0.00,,---,0.00,VWS V12.07,2013-01-10 04:24:00,
2013-01-09 23:31:00,43.5,13.4,29.83,SW,235,5.4,7.6,29,0.00,,---,0.00,VWS V12.07,2013-01-10 04:31:00,
2013-01-09 23:37:00,43.7,13.5,29.85,SW,223,4.9,11.0,29,0.00,,---,0.00,VWS V12.07,2013-01-10 04:37:00,
2013-01-09 23:44:00,43.7,12.8,29.85,WSW,256,3.6,3.6,28,0.00,,---,0.00,VWS V12.07,2013-01-10 04:44:00,
2013-01-09 23:50:00,43.5,12.6,29.83,WSW,254,5.4,8.7,28,0.00,,---,0.00,VWS V12.07,2013-01-10 04:50:00,
2013-01-09 23:56:00,43.5,12.6,29.83,SSW,197,4.0,8.7,28,0.00,,---,0.00,VWS V12.07,2013-01-10 04:56:00,